Chillicothe, MO

5:14 PM CST on February 23, 2017 (GMT -0600)
Chillicothe

Weather History for KCDJ - August, 2013

Change the Weather History Date:

Friday, August 16, 2013

  Actual Average (KIRK) Record (KIRK)
Temperature  
Mean Temperature 67 °F -  
Max Temperature 80 °F 85 °F 107 °F (1936)
Min Temperature 55 °F 65 °F 49 °F (1992)
Cooling Degree Days 2    
Growing Degree Days 17 (Base 50)    
Moisture  
Dew Point 53 °F    
Average Humidity 63    
Maximum Humidity 87    
Minimum Humidity 37    
Precipitation  
Precipitation 0.00 in - - ()
Sea Level Pressure  
Sea Level Pressure 30.15 in    
Wind  
Wind Speed 2 mph (ESE)    
Max Wind Speed 9 mph    
Max Gust Speed -    
Averages and records for this station are not official NWS values.
T = Trace of Precipitation, MM = Missing Value Source: NWS Daily Summary

Daily Weather History Graph

Daily Weather History Graph

Search for Another Location

Airport or City:

Trip Planner

Search our weather history database for the weather conditions in past years. The results will help you decide how hot, cold, wet, or windy it might be!

Date:

Astronomy

Aug. 16, 2013 Rise Set
Actual Time 6:27 AM CDT 8:08 PM CDT
Civil Twilight 5:58 AM CDT 8:37 PM CDT
Nautical Twilight 5:23 AM CDT 9:12 PM CDT
Astronomical Twilight 4:46 AM CDT 9:49 PM CDT
Moon 4:28 PM CDT (8/16) 1:31 AM CDT (8/16)
Length of Visible Light 14h 39m
Length of Day
13h 41m
Waxing Gibbous, 75% of the Moon is Illuminated
Aug 16
Waxing Gibbous
Aug 20
Full
Aug 28
Last Quarter
Sep 5
New
Sep 12
First Quarter

Hourly Weather History & Observations

Time (CDT) Temp. Dew Point Humidity Pressure Visibility Wind Dir Wind Speed Gust Speed Precip Events Conditions
12:52 AM 64.9 °F 54.0 °F 68% 30.11 in - Calm Calm - N/A   Unknown
1:52 AM 60.1 °F 55.0 °F 83% 30.12 in - Calm Calm - N/A   Unknown
2:52 AM 63.0 °F 54.0 °F 72% 30.11 in - Calm Calm - N/A   Unknown
3:52 AM 60.1 °F 54.0 °F 80% 30.12 in - Calm Calm - N/A   Unknown
4:52 AM 61.0 °F 53.1 °F 75% 30.12 in - Calm Calm - N/A   Unknown
5:52 AM 57.9 °F 53.1 °F 84% 30.14 in - Calm Calm - N/A   Unknown
6:52 AM 55.9 °F 52.0 °F 87% 30.16 in - Calm Calm - N/A   Unknown
7:52 AM 62.1 °F 55.0 °F 78% 30.16 in - Variable 3.5 mph - N/A   Unknown
8:52 AM 66.9 °F 55.0 °F 66% 30.17 in - Calm Calm - N/A   Unknown
9:52 AM 70.0 °F 54.0 °F 57% 30.17 in - East 4.6 mph - N/A   Unknown
10:52 AM 73.0 °F 54.0 °F 51% 30.17 in - Variable 5.8 mph - N/A   Unknown
11:52 AM 73.9 °F 52.0 °F 46% 30.17 in - Variable 4.6 mph - N/A   Unknown
12:52 PM 75.9 °F 53.1 °F 45% 30.16 in - East 5.8 mph - N/A   Unknown
1:52 PM 75.9 °F 52.0 °F 43% 30.15 in - Variable 6.9 mph - N/A   Unknown
2:52 PM 77.0 °F 51.1 °F 40% 30.13 in - Variable 3.5 mph - N/A   Unknown
3:52 PM 78.1 °F 50.0 °F 37% 30.12 in - SE 9.2 mph - N/A   Unknown
4:52 PM 79.0 °F 52.0 °F 39% 30.12 in - ESE 9.2 mph - N/A   Unknown
5:52 PM 78.1 °F 51.1 °F 39% 30.13 in - Variable 4.6 mph - N/A   Unknown
6:52 PM 75.9 °F 51.1 °F 42% 30.14 in - Variable 4.6 mph - N/A   Unknown
7:52 PM 72.0 °F 53.1 °F 51% 30.15 in - Calm Calm - N/A   Unknown
8:52 PM 64.0 °F 55.9 °F 75% 30.16 in - Calm Calm - N/A   Unknown
9:52 PM 62.1 °F 55.0 °F 78% 30.17 in - Calm Calm - N/A   Unknown
10:52 PM 59.0 °F 54.0 °F 83% 30.18 in - Calm Calm - N/A   Unknown
11:52 PM 57.9 °F 54.0 °F 87% 30.18 in - Calm Calm - N/A   Unknown